Tracking 29892 objects as of 21-Nov-2024
HD Live streaming from Space Station
objects crossing your sky now

COSMOS 2499 DEB

Track COSMOS 2499 DEB now!
10-day predictions


NORAD ID: 55719
Int'l Code: 2014-028AF
Perigee: 1,144.2 km
Apogee: 1,488.0 km
Inclination: 82.4 °
Period: 111.8 minutes
Semi major axis: 7687 km
RCS: Unknown
Launch date: May 23, 2014
Source: Commonwealth of Independent States (former USSR) (CIS)
Launch site: PLESETSK MISSILE AND SPACE COMPLEX (PKMTR)

Note: This is SATELLITE DEBRIS
Your satellite tracking list
Your tracking list is empty




NASA's NSSDC Master Catalog

Two Line Element Set (TLE):
1 55719U 14028AF  24323.60223731  .00002688  00000-0  94322-2 0  9996
2 55719  82.3888 276.8714 0223615 268.6134  88.9348 12.88134007 87302
Source of the keplerian elements: AFSPC